Location: Augirein
(42.9320°N, 0.9181°E)
Time: 19:44:36
(UTC+00:00)

Cosmos 1606 - Pass Details

Date: 20 June 2021
Orbit: 501 x 527 km, 82.5° (Epoch: 02 August)

Event Time Altitude Azimuth Distance (km) Brightness Sun altitude
Rises 02:33:29 0° 334° (NNW) 2,647 6.7 -14.6°
Reaches altitude 10° 02:36:15 10° 312° (NW) 1,748 5.4 -14.3°
Maximum altitude 02:38:39 16° 273° (W) 1,392 4.6 -14.0°
Enters shadow 02:39:16 16° 262° (W) 1,416 4.5 -14.0°
